Regional Weather Roundup
Issued by NWS San Angelo, TX

Home | Current Version | Previous Version | Text Only | Print | Product List | Glossary On
Versions: 1 2 3 4 5 6 7 8 9 10 11 12 13 14 15 16 17 18 19 20 21 22 23 24 25 26 27 28 29 30 31 32 33 34 35 36 37 38 39 40 41 42 43 44 45 46 47 48 49 50
000
ASUS44 KSJT 022110
RWRSJT
WEST CENTRAL TEXAS REGIONAL WEATHER ROUNDUP
NATIONAL WEATHER SERVICE SAN ANGELO TX
400 PM CDT TUE JUN 02 2015

NOTE: "FAIR" INDICATES FEW OR NO CLOUDS BELOW 12,000 FEET WITH NO
SIGNIFICANT WEATHER AND/OR OBSTRUCTIONS TO VISIBILITY.

TXZ049-054-064>066-071>073-076>078-098-099-113-114-127-128-139-140-
154-155-168>170-022200
...LOCATIONS ACROSS WEST CENTRAL TEXAS...

CITY           SKY/WX    TMP DP  RH WIND       PRES   REMARKS
SAN ANGELO     SUNNY     87  64  46 S15G21    29.94F
ABILENE        SUNNY     87  63  44 S16G24    29.96F
DYESS AFB      SUNNY     86  62  44 S21       29.94F
JUNCTION       SUNNY     89  62  40 S12G20    29.97F
SWEETWATER     NOT AVBL
BROWNWOOD      MOSUNNY   86  63  45 S12G17    29.96S
COLEMAN        PTCLDY    87  65  48 S14G20    29.96F
SONORA         SUNNY     86  57  37 SE13G20   30.02F
OZONA          NOT AVBL
BRADY          SUNNY     86  59  39 SE8       29.97F
$$

TEXAS PANHANDLE/OKLAHOMA PANHANDLE

CITY           SKY/WX    TMP DP  RH WIND       PRES   REMARKS
AMARILLO       SUNNY     86  60  41 S21       29.95F
BORGER         SUNNY     90  58  33 S17G25    29.90F
CANADIAN       SUNNY     91  65  42 S20G25    29.86F
DALHART        SUNNY     89  57  33 S18       29.93F
DUMAS          CLEAR     87  60  39 S13G23    29.92F
GUYMON         NOT AVBL
HEREFORD       CLEAR     88  62  41 MISG      29.95F
PAMPA          CLEAR     87  56  34 S23       29.93S
PERRYTON       SUNNY     90  59  36 S23G29    29.87F
$$

SOUTHERN PANHANDLE/SOUTH PLAINS/ROLLING PLAINS

CITY           SKY/WX    TMP DP  RH WIND       PRES   REMARKS
LUBBOCK        MOSUNNY   87  59  38 S16       29.95F
SNYDER         SUNNY     85  63  46 S15G22    29.96F
CHILDRESS      LGT RAIN  89  58  34 S21G29    29.90F
SEMINOLE       CLEAR     91  56  30 SE12G18   29.96F
$$

PERMIAN BASIN

CITY           SKY/WX    TMP DP  RH WIND       PRES   REMARKS
MIDLAND        SUNNY     91  60  35 SE15G24   29.94F
ODESSA         SUNNY     90  60  36 S18G26    29.95F
WINK           SUNNY     95  54  25 SE9       29.90F
$$

FAR WEST/SOUTHWEST MOUNTAINS/TRANS PECOS

CITY           SKY/WX    TMP DP  RH WIND       PRES   REMARKS
ALPINE         CLOUDY    75  54  48 S12G17    30.11F
DRYDEN           N/A     93  56  28 SE13      29.93F
EL PASO        MOSUNNY   98  24   7 SW16G26   29.97F
FORT STOCKTON  SUNNY     93  58  30 SE14G21   29.93F
GUADALUPE PASS MOSUNNY   93  35  13 W16G30    30.09F
MARFA          PTSUNNY   82  48  30 E23G31    30.07F
PECOS          CLEAR     96  54  24 E10G17    29.88F
$$

DALLAS/FORT WORTH METROPLEX

CITY           SKY/WX    TMP DP  RH WIND       PRES   REMARKS
DFW AIRPORT    PTSUNNY   87  64  46 S9        29.95F
FTW MEACHAM    PTSUNNY   90  66  45 S7        29.94F
DAL-EXECUTIVE  MOSUNNY   84  65  52 SE5       29.96F
GRAND PRAIRIE  SUNNY     84  66  54 E9        29.97F
ADDISON        NOT AVBL
MESQUITE       CLEAR     86  63  45 S3        29.97F
LANCASTER      PTCLDY    85  62  44 S5        29.97F
$$

NORTH CENTRAL TEXAS

CITY           SKY/WX    TMP DP  RH WIND       PRES   REMARKS
SHRMAN/DENISON PTCLDY    88  69  52 S9        29.97F
GAINESVILLE    MOSUNNY   86  67  52 SE10      29.98F
BRIDGEPORT     PTCLDY    88  67  49 SE10G17   29.96F
DENTON         MOSUNNY   87  66  49 SE12G17   29.95F
WAXAHACHIE     PTCLDY    85  66  51 SE5       29.97F
GRANBURY       MOCLDY    89  64  43 SE9       29.95F
$$

WESTERN NORTH TEXAS

CITY           SKY/WX    TMP DP  RH WIND       PRES   REMARKS
WICHITA FALLS  MOSUNNY   88  66  48 S17       29.92F
VERNON         CLEAR     92  57  30 S17G23    29.91F
BRECKENRIDGE   CLEAR     89  61  39 S15       29.94F
COMANCHE       PTSUNNY   89  64  44 SE10G16   29.96F
$$

CENTRAL AND SOUTH CENTRAL TEXAS

CITY           SKY/WX    TMP DP  RH WIND       PRES   REMARKS
AUSTIN/BERGSTM MOSUNNY   87  65  47 S9        29.95F
WACO           SUNNY     89  65  44 S7        29.95F
HILLSBORO      PTCLDY    87  61  41 S5        29.96F
TEMPLE         PTSUNNY   88  64  45 S7        29.95F
KILLEEN-GRAY   SUNNY     88  64  44 S8        29.95F
FORT HOOD      MOSUNNY   88  65  46 SE8       29.94F
GEORGETOWN     MOSUNNY   88  63  42 S9G18     29.95F
LAGO VISTA     FAIR      87  61  40 S9        29.98F
SAN MARCOS     MOSUNNY   88  64  45 SE8       29.97F
NEW BRAUNFELS  PTSUNNY   89  65  44 SE7       29.95F
RANDOLPH AFB   MOSUNNY   87  64  46 SE9       29.96F
SAN ANTONIO    MOSUNNY   84  64  50 SE10      29.97F
STINSON        SUNNY     87  64  46 VRB5      29.95F
PLEASANTON     NOT AVBL
LA GRANGE      MOSUNNY   89  69  52 S6        29.94F
GIDDINGS       PTCLDY    88  64  45 SW5       29.99F
$$

EAST TEXAS

CITY           SKY/WX    TMP DP  RH WIND       PRES   REMARKS
PARIS          PTSUNNY   84  63  48 SE7       29.99F
CLARKSVILLE    NOT AVBL
TYLER          MOSUNNY   87  63  44 CALM      29.98F
LONGVIEW       MOSUNNY   85  61  44 E6        29.97F
PALESTINE      CLEAR     86  62  43 NE3       29.98F
NACOGDOCHES    PTSUNNY   84  63  48 CALM      29.97F
$$

TEXAS HILL COUNTRY AND EDWARDS PLATEAU

CITY           SKY/WX    TMP DP  RH WIND       PRES   REMARKS
LLANO          CLEAR     90  64  43 S8        29.98F
HORSESHOE BAY  FAIR      90  63  40 S8        29.96F
KERRVILLE      SUNNY     86  63  47 S10       30.00F
FREDERICKSBRG  SUNNY     84  60  43 S9        29.99F
ROCKSPRINGS    CLEAR    N/A N/A N/A S7        30.03F
HONDO          MOSUNNY   87  63  44 S12       29.98F
UVALDE         CLEAR     86  65  49 SE7       29.97F
DEL RIO        SUNNY     89  66  46 E14G21    29.93F
$$

SOUTHEAST TEXAS

CITY           SKY/WX    TMP DP  RH WIND       PRES   REMARKS
COLLEGE STN    CLOUDY    86  64  47 VRB3      29.95F
CALDWELL       MOCLDY    88  63  42 SE6       29.98F
CROCKETT       NOT AVBL
BRENHAM        SUNNY     89  64  43 CALM      29.96F
HUNTSVILLE     SUNNY     86  62  44 NE3       29.97F
CONROE         SUNNY     88  59  37 E6        29.96F
HOUSTON BUSH   MOSUNNY   89  63  41 VRB6      29.94F
HOUSTON HOBBY  MOSUNNY   89  62  40 VRB3      29.93F
PERLAND        MOSUNNY   90  61  37 VRB3      29.96F
WHARTON        PTCLDY    87  64  46 CALM      29.96F
$$

THE UPPER TEXAS COAST

CITY           SKY/WX    TMP DP  RH WIND       PRES   REMARKS
ORANGE         PTCLDY    86  54  33 CALM      29.96F
PORT ARTHUR    MOSUNNY   89  61  38 CALM      29.94F
GALVESTON      MOSUNNY   85  69  58 S8        29.96F
ANGLETON       CLOUDY    87  69  54 SW7       29.95F
BAY CITY       PTCLDY    87  70  55 S8        29.95F
$$

TEXAS COASTAL BEND, RIO GRANDE PLAINS DEEP SOUTH TEXAS

CITY           SKY/WX    TMP DP  RH WIND       PRES   REMARKS
VICTORIA       SUNNY     87  70  56 S12       29.96F
BEEVILLE       FAIR      84  67  56 SE7       29.95F
ROCKPORT       SUNNY     87  67  51 SE10      29.95F
PORT ARANSAS   CLEAR     84  70  63 SE8       29.96F
PORT LAVACA    CLOUDY    84  69  59 SE8       29.97F
CORPUS CHRISTI PTSUNNY   86  67  52 E9G16     29.94F
KINGSVILLE NAS MOSUNNY   89  73  59 SE12      29.94F
COTULLA        MOSUNNY   88  64  44 S10       29.94F
LAREDO         MOSUNNY   91  66  43 SE12      29.95F
BROWNSVILLE    MOSUNNY   88  69  53 SE13      29.94F
PORT ISABEL    SUNNY     86  70  58 E13       29.94F
HEBBRONVILLE     N/A     88  63  43 SE9       29.96F
MCALLEN        PTSUNNY   93  70  46 SE8       29.93F
WESLACO        CLOUDY    88  68  51 E7        29.93F
FALFURRIAS     PTCLDY    89  70  53 E7        29.93F
EDINBURG       CLEAR     92  66  43 SE7       29.93F
$$



USA.gov is the U.S. government's official web portal to all federal, state and local government web resources and services.